Home > Time Zones > World Clock > Weather > Japan > Tokyo > Past weeks

Flag for Japan Weather past 2 weeks in Tokyo, Japan

Now
84 °F

Warm.


Feels Like: 93 °F
Forecast: 79 / 93 °F
Wind: 6 mph from South

Location: Tokyo

Current Time: Aug 1, 2014 at 8:55:14 PM

Latest Report: Aug 1, 2014 at 8:00 PM


Visibility: N/A

Pressure: 29.85 "Hg

Humidity: 78%

Dew point: 76 °F

Location of TokyoLocation

Historic Weather in Tokyo — Graph

°F

Tokyo temperature yesterday

Maximum temperature yesterday: 92 °F (at 3:00 PM)
Minimum temperature yesterday: 79 °F (at 5:00 AM)
Average temperature yesterday: 85 °F

Past Weeks' High & Low Weather Summary

 TemperatureHumidityPressure
High95 °F (Jul 25, 2:00 PM)94% (Jul 20, 8:00 PM)30.04 "Hg (Jul 20, 8:00 PM)
Low71 °F (Jul 20, 3:00 AM)41% (Jul 29, 11:00 AM)29.56 "Hg (Jul 27, 1:00 PM)
Average82 °F72%29.84 "Hg
* Reported Jul 17 7:00 PM — Aug 1 7:00 PM, Tokyo, Weather by CustomWeather, © 2014

Note: Actual official high and low records may vary slightly from our data, if they occured in-between our weather recording intervals... More about our weather records

Advertising

Tokyo weather history for previous 24 hours

 ConditionsComfort  
Time TempWeatherWind HumidityBarometerVisibility
7:00 PM
Aug 1
85 °FWarm.8 mph75%29.84 "HgN/A
6:00 PM87 °FPassing clouds.6 mph72%29.84 "Hg9 mi
5:00 PM89 °FHot.10 mph66%29.80 "HgN/A
4:00 PM90 °FHot.12 mph62%29.79 "HgN/A
3:00 PM91 °FPartly sunny.13 mph62%29.80 "Hg9 mi
2:00 PM91 °FHot.12 mph58%29.81 "HgN/A
1:00 PM90 °FHot.13 mph60%29.83 "HgN/A
12:00 PM91 °FOvercast.12 mph61%29.84 "Hg9 mi
11:00 AM91 °FHot.10 mph63%29.86 "HgN/A
10:00 AM90 °FHot.3 mph60%29.87 "HgN/A
9:00 AM86 °FOvercast.2 mph67%29.88 "Hg12 mi
8:00 AM85 °FWarm.2 mph72%29.88 "HgN/A
7:00 AM83 °FWarm.3 mph76%29.90 "HgN/A
6:00 AM81 °FScattered clouds.1 mph80%29.89 "Hg12 mi
5:00 AM80 °FWarm.1 mph84%29.89 "HgN/A
4:00 AM80 °FWarm.5 mph83%29.87 "HgN/A
3:00 AM81 °FPassing clouds.5 mph81%29.87 "Hg12 mi
2:00 AM82 °FWarm.8 mph73%29.88 "HgN/A
1:00 AM82 °FWarm.6 mph78%29.88 "HgN/A
12:00 AM83 °FWarm.5 mph76%29.89 "HgN/A
11:00 PM
Jul 31
83 °FWarm.5 mph76%29.89 "HgN/A
10:00 PM84 °FWarm.6 mph76%29.89 "HgN/A
9:00 PM84 °FPassing clouds.7 mph75%29.88 "Hg12 mi
8:00 PM84 °FWarm.7 mph72%29.88 "HgN/A
Weather by CustomWeather, © 2014

See weather overviewHow to use our weather pages